Dewpoint
47 50 50 50 51 51 52 54 58 59 59 59 59 59 59 59 59 59 59 59 59 59
43 44 46 46 47 48 49 51 52 54 56 59 59 59 59 59 59 59 59 59 59 59
40 40 41 42 43 43 44 45 46 48 52 53 54 56 57 58 59 59 59 59 58 58
39 40 40 40 41 41 42 42 42 43 44 46 49 50 52 54 56 57 57 58 57 57
37 37 37 38 39 40 40 41 41 42 42 43 44 46 48 49 52 53 54 55 56 56
35 35 35 36 36 37 38 39 40 40 40 41 42 43 44 45 46 48 51 53 54 54
32 33 34 34 34 35 35 36 36 38 38 39 40 41 43 44 43 44 45 48 50 51
29 29 30 31 32 32 33 33 35 35 36 37 36 38 40 41 43 42 42 43 45 47
26 26 27 27 28 28 29 31 31 32 34 35 35 38 36 38 39 41 42 41 42 43
26 25 25 25 25 25 26 28 28 29 31 32 33 36 36 36 38 38 39 40 41 41
27 25 25 24 24 24 25 27 27 27 29 30 29 35 35 35 35 36 36 37 40 41
27 25 24 24 24 24 25 25 25 27 28 27 28 33 32 34 32 34 35 36 35 37
25 24 24 24 24 24 24 25 25 25 25 27 27 30 31 31 32 30 32 33 36 39
24 24 24 24 23 23 23 23 22 22 23 23 25 26 30 30 31 32 31 29 29 31
Lifted_Index
3 3 3 3 3 3 3 3 3 3 3 3 3 3 3 3 2 2 2 2 2 2
5 5 4 4 4 3 3 3 3 3 3 3 3 3 3 2 2 2 2 2 2 2
8 8 7 6 6 6 5 5 4 4 3 3 3 3 3 3 2 2 2 2 2 2
11 11 10 10 10 10 9 8 8 7 6 6 5 5 5 4 3 3 2 2 2 2
13 13 13 13 13 13 13 12 11 11 10 10 9 9 8 7 6 5 4 3 3 3
14 14 15 15 15 15 15 15 14 14 14 13 13 12 11 10 9 8 7 6 5 5
16 16 16 16 17 17 17 17 17 16 16 16 15 15 14 13 12 11 9 8 7 7
17 17 17 17 18 18 18 18 18 18 18 18 17 17 16 15 14 13 12 10 9 8
18 18 18 18 18 19 19 19 19 19 18 18 19 19 18 18 16 15 14 12 11 10
18 18 19 19 19 19 20 20 20 20 20 19 20 20 20 19 18 17 16 14 13 12
19 19 20 20 20 21 21 21 21 21 21 21 21 21 21 20 19 18 17 15 14 13
20 20 20 21 21 22 22 22 23 23 23 23 23 23 22 21 19 18 16 15 14 13
21 22 22 22 23 23 23 23 24 24 24 24 23 23 21 20 18 16 15 14 13 13
23 23 23 24 24 24 24 24 24 24 24 24 23 22 20 18 16 15 14 13 13 12